CAPE
63 63 52 42 41 46 32 34 25 20 16 11 8 8 8 9 5 3 2 0 0 0 0 1 1 1 0 0 0 0 0 0 0 0 0 0 0 0 0 0 0 0 0 0 0 0 0
54 50 51 50 43 49 52 46 38 37 23 12 8 4 1 3 4 2 2 2 0 0 0 0 0 0 0 0 0 0 0 0 0 0 0 0 0 0 0 0 0 0 0 0 0 0 0
23 32 27 31 32 37 46 51 52 50 34 23 24 20 12 3 2 2 1 1 1 0 0 0 0 0 0 0 0 0 0 0 0 0 0 0 0 0 0 0 0 0 0 0 0 0 0
21 10 9 8 13 12 16 23 22 19 25 30 24 27 17 12 11 6 5 2 0 0 0 0 0 0 0 0 0 0 0 0 0 0 0 0 0 0 0 0 0 0 0 0 0 0 0
13 14 11 10 10 11 8 8 5 6 7 9 11 17 14 11 7 4 1 0 0 0 0 0 0 0 0 0 0 0 0 0 0 0 0 0 0 0 0 0 0 0 0 0 0 0 0
13 23 27 31 23 13 12 10 9 7 7 8 6 6 12 9 8 2 0 0 0 0 0 0 0 0 0 0 0 0 0 0 0 0 0 0 0 0 0 0 0 0 0 0 0 0 0
19 26 26 32 36 40 30 31 27 13 12 15 8 4 7 7 4 1 0 0 0 0 0 0 0 0 0 0 0 0 0 0 0 0 0 0 0 0 0 0 0 0 0 0 0 0 0
36 35 39 39 38 37 26 35 30 13 21 18 10 7 5 4 0 0 0 0 0 0 0 0 0 0 0 0 0 0 0 0 0 0 0 0 0 0 0 0 0 0 0 0 0 0 0
26 51 53 58 42 40 25 20 27 13 16 25 13 8 3 4 0 0 0 0 0 0 0 0 0 0 0 0 0 0 0 0 0 0 0 0 0 0 0 0 0 0 0 0 0 0 0
20 23 25 30 26 21 19 18 32 18 16 23 16 17 11 6 0 0 0 0 0 0 0 0 0 0 0 0 0 0 0 0 0 0 0 0 0 0 0 0 0 0 0 0 0 0 0
24 22 24 27 25 24 26 25 32 40 25 28 22 14 16 1 0 0 0 0 0 0 0 0 0 0 0 0 0 0 0 0 0 0 0 0 0 0 0 0 0 0 0 0 0 0 0
29 26 17 23 28 24 20 22 20 25 28 43 12 3 8 0 0 0 0 0 0 0 0 0 0 0 0 0 0 0 0 0 0 0 0 0 0 0 0 0 0 0 0 0 0 0 0
23 20 24 26 20 20 18 30 25 20 37 29 11 0 0 0 0 0 0 0 0 0 0 0 0 0 0 0 0 0 0 0 0 0 0 0 0 0 0 0 0 0 0 0 0 0 0
25 22 32 17 28 18 10 27 31 33 30 40 14 0 0 0 0 0 0 0 0 0 0 0 0 0 0 0 0 0 0 0 0 0 0 0 0 0 0 0 0 0 0 0 0 0 0
19 31 29 28 24 27 15 19 31 41 48 24 0 0 0 0 0 0 0 0 0 0 0 0 0 0 0 0 0 0 0 0 0 0 0 0 0 0 0 0 0 0 0 0 0 0 0
24 35 34 31 29 21 23 15 20 32 43 6 0 0 0 0 0 0 0 0 0 0 0 0 0 0 0 0 0 0 0 0 0 0 0 0 0 0 0 0 0 0 0 0 0 0 0
40 39 32 33 29 24 21 18 11 28 34 1 0 0 0 0 0 5 0 0 0 0 0 0 0 0 0 0 0 0 0 0 0 0 0 0 0 0 0 0 0 0 0 0 0 0 0
51 45 42 40 38 30 13 20 15 15 51 0 0 0 0 0 16 5 0 1 0 0 0 0 0 0 0 0 0 0 0 0 0 0 0 0 0 0 0 0 0 0 0 0 0 0 0
51 47 46 44 41 34 14 16 22 9 14 0 2 0 0 0 0 19 9 23 10 2 0 0 0 0 0 0 0 0 0 0 0 0 0 0 0 0 0 0 0 0 0 0 0 0 0
37 38 42 43 36 38 37 19 20 13 5 0 4 0 0 0 5 2 5 0 4 0 0 1 0 0 0 0 0 0 0 0 0 0 0 0 0 0 0 0 0 0 0 0 0 0 0
42 41 40 38 32 37 39 32 22 23 6 0 2 0 7 0 0 0 1 3 0 0 0 0 0 0 2 1 0 0 0 0 0 0 0 0 0 0 0 0 0 0 0 0 0 0 0
47 46 42 39 43 48 46 40 34 27 13 0 0 0 0 0 0 2 0 0 0 0 6 0 1 0 3 3 4 2 1 0 0 0 0 0 0 0 0 0 0 0 0 0 0 0 0
49 49 51 50 49 50 49 45 42 34 1 0 2 0 16 0 0 4 0 4 7 9 0 0 2 9 0 0 0 0 0 0 0 0 0 0 0 0 0 0 0 0 0 0 0 0 0
51 52 45 46 48 50 51 48 43 44 21 0 0 0 11 0 0 0 1 1 6 11 18 6 14 9 0 0 0 0 0 0 0 0 0 0 0 0 0 0 0 0 0 0 0 0 0
49 43 44 45 47 50 55 54 57 49 64 0 0 0 8 1 0 0 0 0 0 4 1 0 0 0 0 0 5 8 0 0 0 0 0 0 0 0 0 0 0 0 0 0 0 0 0
45 52 40 35 45 45 50 58 59 65 65 3 0 0 0 0 0 0 0 7 2 0 0 3 0 0 0 1 30 17 20 0 0 0 0 0 0 0 0 0 0 0 0 0 0 0 0
52 58 41 32 27 30 43 59 63 70 71 29 0 0 0 2 0 0 0 1 18 36 0 0 7 0 0 0 0 27 12 0 0 0 0 0 0 0 0 0 0 0 0 0 0 0 0
59 63 56 46 50 42 34 51 67 75 83 43 4 0 0 0 0 0 0 0 0 0 5 4 1 0 0 17 23 13 22 5 1 0 0 0 0 0 0 0 0 0 0 0 0 0 0
54 67 63 60 54 50 43 37 63 79 89 78 33 0 0 0 0 0 0 0 0 0 7 21 15 0 0 11 3 2 8 0 0 1 0 0 0 0 0 0 0 0 0 0 0 0 0
CIN
-0 -0 -0 -0 -0 -0 -0 -0 -0 -0 -0 -0 -0 -0 -0 -0 -0 -0 -0 -0 -0 -0 -0 -0 -0 -0 -0 -0 -0 -0 -0 -0 -0 -0 -0 -0 -0 -0 -0 -0 -0 -0 -0 -0 -0 -0 -0
-0 -0 -0 -0 -0 -0 -0 -0 -0 -0 -0 -0 -0 -0 -0 -0 -0 -0 -0 -0 -0 -0 -0 -0 -0 -0 -0 -0 -0 -0 -0 -0 -0 -0 -0 -0 -0 -0 -0 -0 -0 -0 -0 -0 -0 -0 -0
-0 -0 -0 -0 -0 -0 -0 -0 -0 -0 -0 -0 -0 -0 -0 -0 -0 -0 -0 -0 -0 -0 -0 -0 -0 -0 -0 -0 -0 -0 -0 -0 -0 -0 -0 -0 -0 -0 -0 -0 -0 -0 -0 -0 -0 -0 -0
-0 -0 -0 -0 -4 -6 -8 -4 -4 -3 -0 -0 -0 -0 -0 -0 -0 -0 -0 -0 -0 -0 -0 -0 -0 -0 -0 -0 -0 -0 -0 -0 -0 -0 -0 -0 -0 -0 -0 -0 -0 -0 -0 -0 -0 -0 -0
-0 -0 -0 -0 -0 -0 -0 -0 -0 -0 -0 -0 -0 -0 -0 -0 -0 -0 -0 -0 -0 -0 -0 -0 -0 -0 -0 -0 -0 -0 -0 -0 -0 -0 -0 -0 -0 -0 -0 -0 -0 -0 -0 -0 -0 -0 -0
-0 -0 -0 -0 -0 -0 -0 -0 -0 -0 -0 -0 -0 -0 -0 -0 -0 -0 -0 -0 -0 -0 -0 -0 -0 -0 -0 -0 -0 -0 -0 -0 -0 -0 -0 -0 -0 -0 -0 -0 -0 -0 -0 -0 -0 -0 -0
-0 -0 -0 -0 -0 -0 -0 -0 -0 -0 -0 -0 -0 -0 -0 -0 -0 -0 -0 -0 -0 -0 -0 -0 -0 -0 -0 -0 -0 -0 -0 -0 -0 -0 -0 -0 -0 -0 -0 -0 -0 -0 -0 -0 -0 -0 -0
-0 -0 -0 -0 -0 -0 -0 -0 -0 -0 -0 -0 -0 -0 -0 -0 -0 -0 -0 -0 -0 -0 -0 -0 -0 -0 -0 -0 -0 -0 -0 -0 -0 -0 -0 -0 -0 -0 -0 -0 -0 -0 -0 -0 -0 -0 -0
-0 -0 -0 -0 -0 -0 -0 -0 -0 -0 -0 -0 -0 -0 -0 -0 -0 -0 -0 -0 -0 -0 -0 -0 -0 -0 -0 -0 -0 -0 -0 -0 -0 -0 -0 -0 -0 -0 -0 -0 -0 -0 -0 -0 -0 -0 -0
-0 -0 -0 -0 -0 -0 -0 -0 -0 -0 -0 -0 -0 -0 -0 -0 -0 -0 -0 -0 -0 -0 -0 -0 -0 -0 -0 -0 -0 -0 -0 -0 -0 -0 -0 -0 -0 -0 -0 -0 -0 -0 -0 -0 -0 -0 -0
-0 -0 -0 -0 -0 -0 -0 -0 -0 -0 -0 -0 -0 -0 -0 -0 -1 -0 -0 -0 -0 -0 -0 -0 -0 -0 -0 -0 -0 -0 -0 -0 -0 -0 -0 -0 -0 -0 -0 -0 -0 -0 -0 -0 -0 -0 -0
-0 -0 -0 -0 -0 -0 -0 -0 -0 -0 -0 -0 -0 -0 -0 -0 -0 -0 -0 -0 -0 -0 -0 -0 -0 -0 -0 -0 -0 -0 -0 -0 -0 -0 -0 -0 -0 -0 -0 -0 -0 -0 -0 -0 -0 -0 -0
-0 -0 -0 -0 -0 -0 -0 -0 -0 -0 -0 -0 -0 -0 -0 -0 -0 -0 -0 -0 -0 -0 -0 -0 -0 -0 -0 -0 -0 -0 -0 -0 -0 -0 -0 -0 -0 -0 -0 -0 -0 -0 -0 -0 -0 -0 -0
-0 -0 -0 -0 -0 -0 -0 -0 -0 -0 -0 -0 -0 -0 -0 -0 -0 -0 -0 -0 -0 -0 -0 -0 -0 -0 -0 -0 -0 -0 -0 -0 -0 -0 -0 -0 -0 -0 -0 -0 -0 -0 -0 -0 -0 -0 -0
-0 -0 -0 -0 -0 -0 -0 -0 -0 -0 -0 -0 -0 -0 -0 -0 -0 -0 -0 -0 -0 -0 -0 -0 -0 -0 -0 -0 -0 -0 -0 -0 -0 -0 -0 -0 -0 -0 -0 -0 -0 -0 -0 -0 -0 -0 -0
-0 -0 -0 -0 -0 -0 -0 -0 -0 -0 -0 -0 -0 -0 -0 -0 -0 -0 -0 -0 -0 -0 -0 -0 -0 -0 -0 -0 -0 -0 -0 -0 -0 -0 -0 -0 -0 -0 -0 -0 -0 -0 -0 -0 -0 -0 -0
-0 -0 -0 -0 -0 -0 -0 -0 -0 -0 -0 -0 -0 -0 -0 -0 -6 -1 -0 -0 -0 -0 -0 -0 -0 -0 -0 -0 -0 -0 -0 -0 -0 -0 -0 -0 -0 -0 -0 -0 -0 -0 -0 -0 -0 -0 -0
-0 -0 -0 -0 -0 -0 -0 -0 -0 -0 -0 -0 -0 -0 -0 -0 -6 -3 -0 -2 -0 -0 -0 -0 -0 -0 -0 -0 -0 -0 -0 -0 -0 -0 -0 -0 -0 -0 -0 -0 -0 -0 -0 -0 -0 -0 -0
-0 -0 -0 -0 -0 -0 -0 -0 -0 -0 -0 -1 -0 -0 -0 -0 -0 -0 -4 -0 -0 -0 -0 -0 -0 -0 -0 -0 -0 -0 -0 -0 -0 -0 -0 -0 -0 -0 -0 -0 -0 -0 -0 -0 -0 -0 -0
-0 -0 -0 -0 -0 -0 -0 -0 -0 -0 -0 -0 -0 -0 -0 -0 -6 -0 -0 -0 -0 -0 -0 -3 -0 -0 -0 -0 -0 -0 -0 -0 -0 -0 -0 -0 -0 -0 -0 -0 -0 -0 -0 -0 -0 -0 -0
-0 -0 -0 -0 -0 -0 -0 -0 -0 -0 -0 -0 -3 -0 -0 -0 -0 -0 -0 -1 -0 -0 -0 -0 -0 -0 -0 -0 -0 -0 -0 -0 -0 -0 -0 -0 -0 -0 -0 -0 -0 -0 -0 -0 -0 -0 -0
-0 -0 -0 -0 -0 -0 -0 -0 -0 -0 -6 -0 -0 -0 -0 -0 -0 -2 -0 -0 -0 -0 -2 -0 -0 -0 -0 -0 -0 -0 -0 -0 -0 -0 -0 -0 -0 -0 -0 -0 -0 -0 -0 -0 -0 -0 -0
-0 -0 -0 -0 -0 -0 -0 -0 -0 -0 -4 -0 -2 -0 -1 -0 -0 -0 -0 -0 -0 -0 -0 -0 -0 -0 -0 -0 -0 -0 -0 -0 -0 -0 -0 -0 -0 -0 -0 -0 -0 -0 -0 -0 -0 -0 -0
-0 -0 -0 -0 -0 -0 -0 -0 -0 -0 -0 -0 -0 -0 -0 -0 -0 -0 -0 -0 -0 -0 -0 -0 -0 -0 -0 -0 -0 -0 -0 -0 -0 -0 -0 -0 -0 -0 -0 -0 -0 -0 -0 -0 -0 -0 -0
-0 -0 -0 -0 -0 -0 -0 -0 -0 -0 -0 -0 -0 -0 -1 -0 -0 -0 -0 -0 -0 -0 -0 -0 -0 -0 -0 -0 -3 -6 -0 -0 -0 -0 -0 -0 -0 -0 -0 -0 -0 -0 -0 -0 -0 -0 -0
-0 -0 -0 -0 -0 -0 -0 -0 -0 -0 -0 -1 -0 -0 -0 -1 -0 -0 -0 -0 -0 -0 -0 -8 -0 -0 -0 -0 -1 -0 -1 -0 -0 -0 -0 -0 -0 -0 -0 -0 -0 -0 -0 -0 -0 -0 -0
-0 -0 -0 -0 -0 -0 -0 -0 -0 -0 -0 -5 -0 -0 -0 -3 -0 -0 -0 -0 -2 -0 -0 -0 -0 -0 -0 -0 -1 -0 -0 -0 -0 -0 -0 -0 -0 -0 -0 -0 -0 -0 -0 -0 -0 -0 -0
-0 -0 -0 -0 -0 -0 -2 -0 -0 -0 -0 -5 -9 -0 -0 -0 -0 -0 -0 -0 -0 -0 -0 -1 -1 -0 -0 -1 -0 -1 -1 -3 -1 -0 -0 -0 -0 -0 -0 -0 -0 -0 -0 -0 -0 -0 -0
-0 -0 -0 -0 -0 -0 -0 -1 -0 -0 -0 -2 -1 -0 -0 -0 -1 -0 -0 -0 -0 -0 -0 -1 -2 -1 -0 -0 -2 -0 -0 -0 -0 -1 -0 -0 -0 -0 -0 -0 -0 -0 -0 -0 -0 -0 -0
Wind_Speed
20 20 18 18 18 17 16 17 16 17 18 20 20 21 22 23 24 24 23 22 22 22 21 18 17 14 7 2 11 7 4 3 1 3 2 1 2 3 4 3 1 5 4 3 5 9 9
22 21 21 22 21 21 19 18 16 16 18 20 21 22 23 24 24 24 25 24 22 22 20 18 14 11 2 5 5 6 2 3 5 3 1 4 4 3 2 2 3 6 6 7 4 9 6
21 21 22 23 23 23 23 22 22 22 22 22 22 22 24 26 26 26 26 25 24 22 19 16 9 3 3 14 2 6 5 3 3 4 2 3 1 4 4 2 3 9 9 6 2 4 11
20 20 21 22 23 22 23 23 23 24 25 25 25 24 24 26 27 27 27 26 24 22 15 13 6 2 9 6 4 6 4 5 4 3 3 5 4 3 3 2 5 6 5 7 5 6 3
21 20 20 20 21 22 22 22 23 23 24 25 26 26 26 28 28 29 30 28 21 6 4 5 3 2 11 9 2 7 5 3 3 2 4 2 1 4 4 6 4 5 7 6 4 2 5
20 21 22 21 21 22 23 22 22 24 25 26 27 27 27 28 30 30 32 23 5 2 4 3 3 2 5 3 4 3 5 3 1 0 1 2 1 2 2 4 13 7 6 2 7 5 8
21 20 21 20 21 22 24 23 23 23 25 27 28 28 27 28 30 31 17 5 8 6 4 6 4 4 7 8 2 2 3 4 2 3 4 3 4 11 14 8 7 13 8 7 2 8 10
20 20 21 22 23 24 24 26 25 25 26 27 28 28 28 29 30 24 6 7 4 5 12 12 16 14 16 1 5 6 4 5 4 6 3 1 11 3 6 3 8 8 10 4 7 4 11
22 23 23 24 24 25 25 26 26 26 27 27 28 28 28 29 29 5 4 5 6 5 4 10 7 8 8 10 8 8 10 4 4 5 5 6 4 9 6 6 6 5 16 8 11 6 10
23 24 23 22 23 23 24 24 27 27 28 28 28 26 25 29 6 5 5 9 10 4 3 10 5 8 7 6 6 8 8 7 3 8 6 7 8 7 6 13 14 11 11 14 18 14 10
22 23 23 23 24 24 25 25 25 27 27 29 27 26 23 17 8 4 6 12 13 3 5 3 3 1 6 10 3 4 5 3 6 5 6 8 6 7 12 22 12 16 14 20 18 10 14
22 22 23 24 25 25 26 26 25 26 28 28 30 28 24 4 2 8 8 12 3 9 8 5 3 5 5 4 2 2 3 3 4 3 4 8 3 5 7 3 8 8 11 11 6 5 6
21 22 22 24 25 26 27 27 27 28 29 30 28 30 18 3 5 1 5 4 6 6 4 3 4 4 5 4 5 4 6 5 6 4 3 2 3 2 3 4 3 15 20 5 3 6 8
21 22 22 23 24 26 27 27 28 29 30 31 29 26 5 6 3 0 3 3 5 6 7 5 2 3 7 6 5 7 4 4 6 3 3 6 4 7 4 5 10 22 16 11 10 10 6
19 20 21 21 23 24 26 27 29 28 30 32 29 4 4 5 2 3 2 5 10 6 4 6 2 4 3 4 4 6 7 6 8 11 7 5 5 1 3 1 6 7 7 10 9 2 5
17 18 19 20 21 22 23 26 27 28 30 32 8 4 5 13 5 2 3 5 5 4 8 5 3 5 8 6 7 7 7 7 9 9 7 2 2 2 1 1 0 6 8 6 2 8 7
17 18 19 20 20 22 23 24 26 28 29 30 4 5 4 11 1 1 3 6 6 9 9 5 4 5 3 3 6 6 7 6 8 8 10 5 4 4 4 6 6 3 3 2 5 5 7
18 17 18 19 19 21 22 23 25 26 27 15 6 5 5 7 1 1 3 4 9 8 4 5 5 5 5 6 5 6 9 8 8 9 8 6 5 5 6 3 4 3 6 5 7 7 2
17 17 18 19 18 19 20 20 22 24 26 6 7 4 5 3 2 2 6 6 7 6 5 5 6 5 6 5 6 3 5 7 5 10 10 7 3 3 3 5 3 6 5 4 4 3 7
18 17 17 19 18 18 20 18 19 20 22 5 4 5 6 5 2 7 9 5 10 17 10 6 8 10 7 4 9 8 10 7 6 4 7 8 5 9 10 5 6 4 3 4 5 4 5
19 17 17 19 19 18 17 17 18 16 17 4 3 2 3 5 6 9 6 5 12 10 10 13 8 11 11 6 9 3 9 15 6 0 0 7 8 5 4 5 4 6 11 11 12 7 12
19 18 17 18 18 18 18 16 17 14 9 4 3 4 4 6 6 5 5 4 9 8 6 11 8 17 14 9 11 15 15 4 9 6 2 2 6 6 6 5 7 6 10 13 17 6 3
19 19 18 18 19 18 18 16 14 13 5 2 1 3 1 6 6 5 3 6 12 16 9 9 13 18 16 16 16 21 18 21 22 15 11 5 8 5 8 6 5 4 19 17 12 9 13
19 18 19 19 18 19 18 17 15 13 9 4 4 2 3 5 5 8 17 16 16 13 17 17 14 13 11 19 22 16 15 19 19 23 16 7 6 3 5 5 3 15 12 18 20 17 14
18 18 18 19 19 19 20 18 18 15 17 3 3 3 2 5 7 12 15 17 19 14 15 16 19 14 12 10 7 8 5 3 10 10 15 7 6 3 7 6 4 4 6 8 10 16 9
19 19 19 19 19 19 20 21 19 19 17 5 4 4 3 4 8 14 10 11 14 15 12 5 10 9 7 5 5 6 5 4 6 4 6 5 2 7 3 8 13 6 7 5 4 16 17
20 21 19 19 19 20 21 21 22 21 20 9 5 7 3 6 8 11 9 8 5 9 5 7 7 8 6 4 6 11 9 4 6 12 8 5 2 11 3 5 10 6 3 12 11 11 12
22 22 22 21 22 22 24 25 23 23 22 13 6 8 7 7 12 13 19 15 10 10 12 9 9 6 3 6 4 7 5 6 10 7 9 11 10 6 3 2 14 8 7 21 9 1 13
23 23 22 22 25 23 24 25 25 25 24 20 9 5 6 8 5 5 12 11 14 20 12 7 8 13 5 5 5 5 11 9 8 13 3 8 10 11 14 11 5 5 8 9 5 7 6
Wind_Direction
30 28 22 17 10 360 353 351 350 349 349 349 347 342 339 338 335 333 327 322 320 316 314 313 314 321 345 280 253 263 204 217 137 141 210 195 169 184 187 182 96 123 150 73 141 98 69
23 24 24 23 21 15 10 355 346 348 348 344 341 338 336 335 332 329 324 320 315 309 309 307 306 318 257 256 249 272 207 167 215 205 225 191 217 214 243 213 177 143 105 112 124 88 87
14 12 15 15 13 11 10 10 9 2 353 345 340 336 332 331 329 326 321 317 310 305 300 297 287 280 266 238 314 355 345 253 189 201 214 231 256 226 163 180 150 127 87 81 129 102 118
13 15 15 11 7 4 3 4 1 355 352 351 348 340 333 330 328 325 320 313 305 300 294 275 237 181 251 251 291 276 198 276 259 237 211 265 261 256 198 173 54 96 67 127 248 188 11
11 9 6 5 360 1 359 359 356 352 349 347 343 341 338 335 328 324 321 313 309 290 185 156 106 181 266 305 224 232 193 221 301 255 244 259 257 234 105 142 73 17 157 167 184 207 118
14 11 11 10 3 1 357 352 349 349 348 345 342 338 336 336 332 326 323 311 291 94 120 185 240 352 271 278 266 201 185 162 226 348 10 142 68 203 122 158 183 164 131 140 157 174 81
15 13 8 6 3 4 1 358 357 349 346 346 342 338 336 335 332 327 332 6 13 352 356 220 237 272 286 298 257 241 169 127 134 107 173 205 144 210 207 152 222 138 132 126 112 128 89
16 15 7 12 7 4 3 357 355 352 348 347 343 340 335 333 329 327 325 75 86 283 298 250 244 251 262 52 320 303 126 162 151 195 176 28 228 204 150 181 146 126 126 106 42 75 89
15 13 10 10 9 2 358 356 354 350 349 349 343 340 339 333 324 34 315 97 300 303 257 288 218 211 220 152 215 247 149 170 169 198 185 180 230 169 185 190 167 142 164 171 150 102 95
11 9 5 5 2 358 354 354 352 350 346 345 344 339 341 338 37 334 298 329 327 273 9 276 243 250 169 176 258 201 176 149 194 206 194 232 240 201 187 194 189 197 162 154 146 131 159
12 10 5 5 3 358 354 348 355 344 346 341 339 338 335 339 298 320 292 330 320 67 11 235 225 232 164 157 184 221 183 119 194 218 115 238 198 187 202 201 184 211 153 162 160 148 132
5 5 4 358 359 359 353 350 352 344 345 344 334 328 327 347 269 246 323 311 41 47 255 312 175 178 123 201 211 106 136 85 176 220 194 237 241 178 193 189 185 141 116 131 129 78 214
355 358 356 358 358 357 352 352 349 347 347 343 333 318 320 247 235 35 339 8 49 137 299 262 219 168 177 185 199 176 167 175 183 142 214 220 222 230 160 149 143 154 138 128 160 210 214
350 354 352 355 352 355 351 350 351 349 346 341 332 318 302 243 293 346 7 149 101 232 255 310 245 144 189 160 227 206 169 218 229 122 163 169 239 178 180 213 187 167 172 168 170 199 170
344 346 346 351 348 352 352 348 350 351 347 341 331 326 321 267 238 124 200 183 206 216 284 336 271 141 238 228 179 190 228 198 207 175 192 166 248 281 191 184 164 210 209 152 104 358 122
333 336 338 340 342 346 350 351 348 351 350 344 326 329 291 326 159 91 205 252 248 266 359 333 242 181 196 219 177 176 196 232 216 183 163 248 200 219 320 161 305 198 155 146 340 150 192
323 328 330 334 338 338 344 350 351 350 353 345 2 356 270 336 216 166 204 254 292 313 350 313 327 337 323 242 213 208 219 246 202 187 166 168 129 295 128 212 191 147 192 109 123 141 163
316 319 321 329 333 334 339 345 352 351 356 356 348 338 298 332 39 290 230 245 325 316 19 308 302 238 251 355 290 226 227 217 193 156 169 178 140 185 190 293 264 179 190 166 172 201 141
317 317 317 320 325 327 334 342 344 353 357 350 324 285 308 327 37 291 9 319 301 314 319 317 321 359 33 33 326 266 270 252 227 157 167 183 191 98 27 336 310 227 174 147 113 74 191
314 313 313 316 321 322 325 334 339 351 354 26 309 327 324 25 54 28 1 340 347 324 291 287 261 293 299 262 205 279 310 313 318 255 161 126 143 174 199 210 151 231 228 158 137 158 157
311 309 311 312 318 317 315 320 327 345 357 54 327 288 347 335 332 332 326 307 309 335 335 333 330 2 346 298 328 273 4 330 286 307 26 142 189 174 204 167 188 190 196 199 212 206 201
307 307 306 305 307 306 311 311 318 329 17 63 351 359 335 286 290 316 335 302 291 313 336 322 316 337 336 325 303 319 332 10 265 327 198 257 199 154 199 194 196 205 216 212 216 195 228
305 305 305 303 302 302 303 301 299 309 65 112 284 286 212 283 322 327 276 309 322 320 300 307 311 312 308 305 308 299 277 264 257 270 278 197 139 138 213 168 128 318 220 215 216 205 188
301 301 301 301 301 300 300 300 294 289 278 155 213 132 79 272 290 287 295 306 298 296 287 302 306 306 296 304 296 274 255 250 247 253 218 206 149 123 160 111 156 245 178 209 211 218 211
292 293 295 297 301 300 296 294 293 281 275 184 178 144 194 265 259 286 284 297 306 306 302 297 286 268 288 289 291 298 295 243 239 231 203 198 134 139 143 202 276 258 205 173 175 240 195
287 286 291 296 296 298 296 293 288 281 269 250 203 160 168 265 234 249 279 290 302 296 293 267 318 272 262 239 249 238 253 258 219 216 165 117 138 165 140 171 219 228 187 184 110 253 202
282 281 284 288 292 295 293 289 285 279 272 259 226 178 188 246 240 243 253 264 296 291 297 315 310 321 332 238 227 265 231 254 255 182 168 150 100 198 152 222 273 228 179 139 167 246 173
281 277 279 284 284 289 291 288 282 278 271 264 242 189 208 247 250 245 252 256 267 264 279 308 316 270 239 227 221 235 248 234 234 249 176 170 159 187 101 201 261 187 126 184 210 172 181
281 277 278 277 279 284 288 288 283 276 271 264 255 208 209 231 254 224 232 236 234 240 255 243 265 293 311 323 13 348 334 303 213 240 230 190 186 186 184 212 239 198 194 231 188 172 185